Flag for U.S.A. Weather past 2 weeks in Vevay, Indiana, U.S.A.

Now
45 °F

Mostly cloudy.


Feels Like: 39 °F
Forecast: 43 / 62 °F
Wind: 14 mph from Northeast

Location: Cincinnati / Northern Kentucky International Airport

Current Time: Apr 26, 2015 at 1:06:50 AM

Latest Report: Apr 25, 2015 at 11:52 PM


Visibility: 10 mi

Pressure: 29.65 "Hg

Humidity: 86%

Dew point: 41 °F

Location of VevayLocation

Historic Weather in Vevay — Graph

°F

Vevay temperature yesterday

Maximum temperature yesterday: 55 °F (at 12:52 AM)
Minimum temperature yesterday: 43 °F (at 4:52 PM)
Average temperature yesterday: 48 °F

Past Weeks' High & Low Weather Summary

 TemperatureHumidityPressure
High78 °F (Apr 18, 3:52 PM)100% (Apr 17, 5:02 AM)30.29 "Hg (Apr 17, 5:02 AM)
Low33 °F (Apr 24, 6:52 AM)21% (Apr 21, 6:52 PM)29.42 "Hg (Apr 19, 10:52 PM)
Average57 °F58%29.96 "Hg
* Reported Apr 10 11:52 PM — Apr 25 11:52 PM, Vevay, Weather by CustomWeather, © 2015

Note: Actual official high and low records may vary slightly from our data, if they occured in-between our weather recording intervals... More about our weather records

Advertising

Vevay weather history for previous 24 hours

 ConditionsComfort  
Time TempWeatherWind HumidityBarometerVisibility
11:52 PM
Sat, Apr 25
45 °FMostly cloudy.14 mph86%29.65 "Hg10 mi
10:52 PM45 °FOvercast.17 mph90%29.63 "Hg10 mi
9:52 PM45 °FLow clouds.18 mph97%29.62 "Hg10 mi
8:52 PM45 °FLow clouds.18 mph97%29.60 "Hg10 mi
7:52 PM45 °FLow clouds.20 mph100%29.61 "Hg10 mi
6:52 PM45 °FLow clouds.12 mph100%29.62 "Hg10 mi
5:52 PM45 °FLight rain. Fog.14 mph100%29.64 "Hg1 mi
4:52 PM43 °FFog.17 mph97%29.63 "Hg4 mi
3:52 PM46 °FLight rain. Fog.16 mph93%29.65 "Hg2 mi
2:52 PM47 °FHeavy rain. Fog.15 mph93%29.63 "Hg1 mi
1:52 PM48 °FRain. Fog.14 mph93%29.64 "Hg1 mi
1:01 PM48 °FHeavy rain. Fog.13 mph94%29.68 "Hg2 mi
11:52 AM48 °FLight rain. Fog.9 mph93%29.71 "Hg3 mi
10:52 AM49 °FLight rain. Mostly cloudy.9 mph84%29.73 "Hg3 mi
9:52 AM50 °FOvercast.9 mph71%29.75 "Hg10 mi
8:52 AM48 °FOvercast.12 mph77%29.76 "Hg10 mi
7:52 AM48 °FLight rain. Overcast.9 mph74%29.80 "Hg8 mi
6:52 AM49 °FOvercast.8 mph69%29.79 "Hg10 mi
5:52 AM48 °FOvercast.6 mph74%29.80 "Hg10 mi
4:52 AM48 °FLight rain. Mostly cloudy.6 mph77%29.85 "Hg9 mi
3:52 AM52 °FOvercast.No wind55%29.87 "Hg10 mi
2:52 AM52 °FOvercast.3 mph57%29.86 "Hg10 mi
1:52 AM52 °FLight rain. Overcast.7 mph57%29.87 "Hg10 mi
Weather by CustomWeather, © 2015

See weather overviewHow to use our weather pages